timestamp,surface_pressure_avg,surface_temp_avg,battery_voltage,lat,long
2023-11-26 00:09:01+00:00,327.3997,7.1,12.09,47.84626,-54.09684
2023-11-26 00:19:01+00:00,320.0363,7.07,12.01,47.84626,-54.09684
2023-11-26 00:29:01+00:00,311.4631,6.99,12.01,47.84626,-54.09684
2023-11-26 00:39:01+00:00,305.4714,6.9,12.01,47.84626,-54.09684
2023-11-26 00:49:01+00:00,300.7047,6.9,12.01,47.84626,-54.09684
2023-11-26 00:59:01+00:00,292.6063,6.89,12.01,47.84626,-54.09684
2023-11-26 01:09:01+00:00,277.7914,6.9,12.01,47.84626,-54.09684
2023-11-26 01:19:00+00:00,268.1748,6.99,12.01,47.84626,-54.09684
2023-11-26 01:29:00+00:00,260.7314,7.0,12.01,47.84626,-54.09684
2023-11-26 01:39:00+00:00,249.2964,6.98,12.01,47.84626,-54.09684
2023-11-26 01:49:00+00:00,236.6815,6.99,12.01,47.84626,-54.09684
2023-11-26 01:59:00+00:00,232.1164,7.0,12.01,47.84626,-54.09684
2023-11-26 02:09:00+00:00,229.3464,7.03,12.01,47.84626,-54.09684
2023-11-26 02:19:00+00:00,220.4848,7.09,12.01,47.84626,-54.09684
2023-11-26 02:29:00+00:00,211.0214,7.0,12.01,47.84626,-54.09684
2023-11-26 02:39:00+00:00,208.4831,7.0,12.01,47.84626,-54.09684
2023-11-26 02:49:00+00:00,203.9998,7.0,12.01,47.84626,-54.09684
2023-11-26 02:59:00+00:00,196.2114,6.9,12.01,47.84626,-54.09684
2023-11-26 03:09:00+00:00,197.0214,6.9,12.01,47.84626,-54.09684
2023-11-26 03:19:00+00:00,199.4181,6.96,12.01,47.84626,-54.09684
2023-11-26 03:29:00+00:00,191.0598,6.9,12.01,47.84626,-54.09684
2023-11-26 03:39:00+00:00,188.3148,6.9,12.01,47.84626,-54.09684
2023-11-26 03:49:00+00:00,195.4865,6.95,12.01,47.84626,-54.09684
2023-11-26 03:59:00+00:00,198.2631,7.0,12.01,47.84626,-54.09684
2023-11-26 04:09:00+00:00,196.9498,7.0,12.01,47.84626,-54.09684
2023-11-26 04:19:00+00:00,199.9214,7.0,12.01,47.84626,-54.09684
2023-11-26 04:29:00+00:00,204.7281,7.0,12.01,47.84626,-54.09684
2023-11-26 04:39:00+00:00,205.4664,7.0,12.01,47.84626,-54.09684
2023-11-26 04:49:00+00:00,207.7731,6.9,12.01,47.84626,-54.09684
2023-11-26 04:59:00+00:00,213.8581,6.9,12.01,47.84626,-54.09684
2023-11-26 05:09:00+00:00,213.7131,6.9,12.01,47.84626,-54.09684
2023-11-26 05:19:00+00:00,210.6765,6.8,12.01,47.84626,-54.09684
2023-11-26 05:29:00+00:00,217.5581,6.79,12.01,47.84626,-54.09684
2023-11-26 05:39:00+00:00,226.2664,6.79,12.01,47.84626,-54.09684
2023-11-26 05:49:00+00:00,226.8197,6.8,12.01,47.84626,-54.09684
2023-11-26 05:59:00+00:00,228.1881,6.77,12.01,47.84626,-54.09684
2023-11-26 06:09:00+00:00,235.0548,6.7,12.01,47.84626,-54.09684
2023-11-26 06:19:00+00:00,238.9898,6.7,11.93,47.84626,-54.09684
2023-11-26 06:29:00+00:00,237.7781,6.74,11.93,47.84626,-54.09684
2023-11-26 06:39:00+00:00,242.6097,6.75,11.93,47.84626,-54.09684
2023-11-26 06:49:00+00:00,251.5581,6.8,11.93,47.84626,-54.09684
2023-11-26 06:59:00+00:00,254.0347,6.89,11.93,47.84626,-54.09684
2023-11-26 07:09:00+00:00,257.1964,6.9,11.93,47.84626,-54.09684
2023-11-26 07:19:00+00:00,269.6681,6.99,11.93,47.84626,-54.09684
2023-11-26 07:29:00+00:00,276.1548,7.0,11.93,47.84626,-54.09684
2023-11-26 07:39:00+00:00,275.2881,7.0,11.93,47.84626,-54.09684
2023-11-26 07:49:00+00:00,280.4081,6.94,11.93,47.84626,-54.09684
2023-11-26 07:59:00+00:00,291.5663,6.93,11.93,47.84626,-54.09684
2023-11-26 08:09:00+00:00,295.9747,6.99,11.93,47.84626,-54.09684
2023-11-26 08:19:00+00:00,299.5797,6.99,11.93,47.84626,-54.09684
2023-11-26 08:29:00+00:00,312.6213,7.0,11.93,47.84626,-54.09684
2023-11-26 08:39:00+00:00,323.7413,7.0,11.93,47.84626,-54.09684
2023-11-26 08:49:00+00:00,328.423,7.02,11.93,47.84626,-54.09684
2023-11-26 08:59:00+00:00,339.2013,7.02,11.93,47.84626,-54.09684
2023-11-26 09:09:00+00:00,351.6013,7.03,11.93,47.84626,-54.09684
2023-11-26 09:19:00+00:00,356.7729,7.09,11.93,47.84626,-54.09684
2023-11-26 09:29:00+00:00,357.4363,7.1,11.93,47.84626,-54.09684
2023-11-26 09:39:00+00:00,367.0229,7.1,11.93,47.84626,-54.09684
2023-11-26 09:49:00+00:00,377.103,7.1,11.93,47.84626,-54.09684
2023-11-26 09:59:00+00:00,377.818,7.1,11.93,47.84626,-54.09684
2023-11-26 10:09:00+00:00,377.7862,7.1,11.93,47.84626,-54.09684
2023-11-26 10:19:00+00:00,382.3497,7.09,11.93,47.84626,-54.09684
2023-11-26 10:29:00+00:00,384.6429,7.1,11.93,47.84626,-54.09684
2023-11-26 10:39:00+00:00,383.7463,7.1,11.93,47.84626,-54.09684
2023-11-26 10:49:00+00:00,385.7247,7.1,11.93,47.84626,-54.09684
2023-11-26 10:59:00+00:00,387.6513,7.1,11.93,47.84626,-54.09684
2023-11-26 11:09:00+00:00,383.7063,7.1,11.93,47.84626,-54.09684
2023-11-26 11:19:00+00:00,378.5829,7.1,11.93,47.84626,-54.09684
2023-11-26 11:29:00+00:00,377.7613,7.1,11.93,47.84626,-54.09684
2023-11-26 11:39:00+00:00,371.6163,7.1,11.93,47.84626,-54.09684
2023-11-26 11:49:00+00:00,365.883,7.1,11.93,47.84626,-54.09684
2023-11-26 11:59:00+00:00,361.7313,7.1,11.93,47.84626,-54.09684
2023-11-26 12:09:00+00:00,353.5846,7.1,11.93,47.84626,-54.09684
2023-11-26 12:19:00+00:00,346.6329,7.1,11.93,47.84626,-54.09684
2023-11-26 12:29:00+00:00,345.2313,7.1,11.93,47.84626,-54.09684
2023-11-26 12:39:00+00:00,340.8113,7.1,11.93,47.84626,-54.09684
2023-11-26 12:49:00+00:00,328.543,7.1,11.93,47.84626,-54.09684
2023-11-26 12:59:00+00:00,319.1429,7.1,11.93,47.84626,-54.09684
2023-11-26 13:09:00+00:00,316.183,7.1,11.93,47.84626,-54.09684
2023-11-26 13:19:00+00:00,305.823,7.14,11.93,47.84626,-54.09684
2023-11-26 13:29:00+00:00,295.1198,7.14,11.93,47.84626,-54.09684
2023-11-26 13:39:00+00:00,286.838,7.17,11.93,47.84626,-54.09684
2023-11-26 13:49:00+00:00,276.8314,7.13,11.93,47.84626,-54.09684
2023-11-26 13:59:00+00:00,265.5097,7.1,11.93,47.84626,-54.09684
2023-11-26 14:09:00+00:00,257.4031,7.1,11.93,47.84626,-54.09684
2023-11-26 14:19:00+00:00,249.0864,7.1,11.93,47.84626,-54.09684
2023-11-26 14:29:00+00:00,237.5431,7.1,11.93,47.84626,-54.09684
2023-11-26 14:39:00+00:00,228.8231,7.1,11.93,47.84626,-54.09684
2023-11-26 14:49:00+00:00,223.5398,7.1,11.93,47.84626,-54.09684
2023-11-26 14:59:00+00:00,217.4214,7.1,11.93,47.84626,-54.09684
2023-11-26 15:09:00+00:00,208.6897,7.1,11.93,47.84626,-54.09684
2023-11-26 15:19:00+00:00,202.6014,7.1,12.01,47.84626,-54.09684
2023-11-26 15:29:00+00:00,197.8214,7.1,12.01,47.84626,-54.09684
2023-11-26 15:39:00+00:00,192.9914,7.1,12.01,47.84626,-54.09684
2023-11-26 15:49:00+00:00,191.1581,7.0,12.01,47.84626,-54.09684
2023-11-26 15:59:00+00:00,189.1465,6.99,12.01,47.84626,-54.09684
2023-11-26 16:09:00+00:00,183.5914,6.9,12.01,47.84626,-54.09684
2023-11-26 16:19:00+00:00,181.1148,6.89,12.01,47.84626,-54.09684
2023-11-26 16:29:00+00:00,184.0948,6.87,12.01,47.84626,-54.09684
2023-11-26 16:39:00+00:00,186.0581,6.85,12.01,47.84626,-54.09684
2023-11-26 16:49:00+00:00,183.1132,6.83,12.01,47.84626,-54.09684
2023-11-26 16:59:00+00:00,180.8048,6.8,12.01,47.84626,-54.09684
2023-11-26 17:09:00+00:00,184.0865,6.8,12.01,47.84626,-54.09684
2023-11-26 17:19:00+00:00,185.9915,6.81,11.93,47.84626,-54.09684
2023-11-26 17:29:00+00:00,185.9398,6.9,11.93,47.84626,-54.09684
2023-11-26 17:39:00+00:00,187.2014,6.9,11.93,47.84626,-54.09684
2023-11-26 17:49:00+00:00,187.9381,6.9,11.93,47.84626,-54.09684
2023-11-26 17:59:00+00:00,188.5015,6.91,11.93,47.84626,-54.09684
2023-11-26 18:09:00+00:00,189.3698,6.9,11.93,47.84626,-54.09684
2023-11-26 18:19:00+00:00,192.1281,6.9,11.93,47.84626,-54.09684
2023-11-26 18:29:00+00:00,194.7365,6.93,11.93,47.84626,-54.09684
2023-11-26 18:39:00+00:00,195.8098,6.94,11.93,47.84626,-54.09684
2023-11-26 18:49:00+00:00,198.3015,6.9,11.93,47.84626,-54.09684
2023-11-26 18:59:00+00:00,201.7931,6.91,11.93,47.84626,-54.09684
2023-11-26 19:09:00+00:00,205.6831,6.98,11.93,47.84626,-54.09684
2023-11-26 19:19:00+00:00,210.1681,7.0,11.93,47.84626,-54.09684
2023-11-26 19:29:00+00:00,215.3298,7.0,11.93,47.84626,-54.09684
2023-11-26 19:39:00+00:00,221.5081,7.0,11.93,47.84626,-54.09684
2023-11-26 19:49:00+00:00,228.5114,7.0,11.93,47.84626,-54.09684
2023-11-26 19:59:00+00:00,234.2714,7.0,11.93,47.84626,-54.09684
2023-11-26 20:09:00+00:00,240.8231,7.0,11.93,47.84626,-54.09684
2023-11-26 20:19:00+00:00,251.4547,7.0,12.01,47.84626,-54.09684
2023-11-26 20:29:00+00:00,260.6547,7.0,12.01,47.84626,-54.09684
2023-11-26 20:39:00+00:00,265.9564,7.02,12.01,47.84626,-54.09684
2023-11-26 20:49:00+00:00,274.4164,7.08,12.01,47.84626,-54.09684
2023-11-26 20:59:00+00:00,285.498,7.29,12.01,47.84626,-54.09684
2023-11-26 21:09:00+00:00,294.4097,7.31,12.01,47.84626,-54.09684
2023-11-26 21:19:00+00:00,301.3797,7.35,12.01,47.84626,-54.09684
2023-11-26 21:29:00+00:00,309.6614,7.3,12.01,47.84626,-54.09684
2023-11-26 21:39:00+00:00,314.5913,7.2,12.01,47.84626,-54.09684
2023-11-26 21:49:00+00:00,320.2879,7.0,12.01,47.84626,-54.09684
2023-11-26 21:59:00+00:00,327.9914,6.8,12.01,47.84626,-54.09684
2023-11-26 22:09:00+00:00,333.9813,6.7,12.01,47.84626,-54.09684
2023-11-26 22:19:00+00:00,336.5312,6.7,11.93,47.84626,-54.09684
2023-11-26 22:29:00+00:00,338.4713,6.78,11.93,47.84626,-54.09684
2023-11-26 22:39:00+00:00,339.7163,6.99,11.93,47.84626,-54.09684
2023-11-26 22:49:00+00:00,339.6262,7.09,11.93,47.84626,-54.09684
2023-11-26 22:59:00+00:00,341.1364,7.1,11.93,47.84626,-54.09684
2023-11-26 23:09:00+00:00,341.4562,7.15,11.93,47.84626,-54.09684
2023-11-26 23:19:00+00:00,339.3313,7.14,11.93,47.84626,-54.09684
2023-11-26 23:29:00+00:00,338.6512,7.11,11.93,47.84626,-54.09684
2023-11-26 23:39:00+00:00,336.8246,7.13,11.93,47.84626,-54.09684
2023-11-26 23:49:00+00:00,333.1196,7.17,11.93,47.84626,-54.09684
2023-11-26 23:59:00+00:00,328.158,7.2,11.93,47.84626,-54.09684
